This demonstration page uses our WeatherBlox Daily Observations layout. Learn more.

Hourly Observations for April 18, 2017

Temp ( °F °C ) Dew Point ( °F °C ) Humidity (%) Winds ( mph kmh ) Pressure ( in mb ) Visibility ( mi km ) Precip ( " mm )
12:15 am 00:15 Mostly Cloudy 60 15.6 53 11.5 77 77 S 10 17 29.88 1012 10 16.0934 0 0
12:35 am 00:35 Partly Cloudy 60 15.7 53 11.8 78 78 SSE 10 17 29.88 1012 10 16.0934 0 0
12:55 am 00:55 Clear 59 15 53 11.9 82 82 SSE 12 19 29.91 1013 10 16.0934 0 0
1:15 am 01:15 Clear 58 14.7 54 12.1 85 85 SSE 12 19 29.91 1013 10 16.0934 0 0
1:35 am 01:35 Clear 59 14.8 55 12.5 86 86 SSE 12 19 29.91 1013 10 16.0934 0 0
1:55 am 01:55 Clear 59 15 55 12.8 87 87 S 14 22 29.91 1013 10 16.0934 0 0
2:15 am 02:15 Partly Cloudy 59 15 55 12.9 87 87 S 15 24 29.91 1013 10 16.0934 0 0
2:35 am 02:35 Mostly Cloudy 59 15 55 13 88 88 S 16 26 29.88 1012 10 16.0934 0 0
2:55 am 02:55 Cloudy 59 15 56 13.1 89 89 S 18 30 29.88 1012 10 16.0934 0 0
3:15 am 03:15 Cloudy 59 15 56 13.2 89 89 S 18 30 29.88 1012 10 16.0934 0 0
3:35 am 03:35 Cloudy 59 15 56 13.1 89 89 S 18 30 29.83 1010 10 16.0934 0 0
3:55 am 03:55 Cloudy 59 15 55 13 88 88 S 20 31 29.83 1010 10 16.0934 0 0
4:15 am 04:15 Cloudy 59 14.8 55 13 89 89 S 18 30 29.83 1010 10 16.0934 0 0
4:35 am 04:35 Cloudy 59 14.8 56 13.1 90 90 S 18 30 29.83 1010 10 16.0934 0 0
4:55 am 04:55 Cloudy 59 14.9 56 13.2 90 90 S 15 24 29.83 1010 10 16.0934 0 0
5:15 am 05:15 Cloudy 59 15 56 13.2 89 89 S 18 30 29.83 1010 10 16.0934 0 0
5:35 am 05:35 Cloudy 59 15 56 13.2 89 89 S 21 33 29.83 1010 10 16.0934 0 0
5:55 am 05:55 Cloudy 59 15.1 56 13.3 89 89 SSW 17 28 29.85 1011 10 16.0934 0 0
6:15 am 06:15 Cloudy 59 15.1 56 13.3 89 89 SSW 15 24 29.85 1011 10 16.0934 0 0
6:35 am 06:35 Cloudy 59 15.1 56 13.3 89 89 SSW 12 19 29.85 1011 10 16.0934 0 0
6:55 am 06:55 Cloudy 59 15.1 56 13.3 89 89 SSW 12 19 29.85 1011 10 16.0934 0 0
7:15 am 07:15 Cloudy 59 15.1 56 13.3 89 89 S 8 13 29.91 1013 10 16.0934 0 0
7:35 am 07:35 Cloudy 59 15.2 56 13.3 89 89 SSW 9 15 29.91 1013 10 16.0934 0 0
7:55 am 07:55 Cloudy 59 15.2 56 13.3 89 89 SSW 10 17 29.91 1013 10 16.0934 0 0
8:15 am 08:15 Cloudy 59 15.2 56 13.3 89 89 S 9 15 29.91 1013 10 16.0934 0 0
8:35 am 08:35 Cloudy 59 15.2 56 13.3 89 89 ENE 6 9 29.94 1014 10 16.0934 0 0
8:55 am 08:55 Cloudy 60 15.5 56 13.5 88 88 SSE 3 6 29.88 1012 10 16.0934 0 0
9:15 am 09:15 Cloudy 61 16 56 13.4 85 85 S 7 11 29.88 1012 10 16.0934 0 0
9:35 am 09:35 Cloudy 62 16.7 56 13.5 82 82 SSW 9 15 29.88 1012 10 16.0934 0 0
9:55 am 09:55 Cloudy 61 16.1 46 8 59 59 N 16 26 29.91 1013 10 16.0934 0 0
10:15 am 10:15 Mostly Cloudy 62 16.6 43 6.3 51 51 NNE 15 24 29.88 1012 10 16.0934 0 0
10:35 am 10:35 Partly Cloudy 64 17.5 44 6.5 49 49 NE 15 24 29.88 1012 10 16.0934 0 0
10:55 am 10:55 Sunny 65 18.5 45 7.1 48 48 NE 13 20 29.88 1012 10 16.0934 0 0
11:15 am 11:15 Sunny 66 19.1 45 7.1 46 46 NE 13 20 29.85 1011 10 16.0934 0 0
11:35 am 11:35 Sunny 66 19.1 46 7.8 48 48 NNE 12 19 29.85 1011 10 16.0934 0 0
11:55 am 11:55 Sunny 68 19.8 47 8.2 47 47 ENE 9 15 29.85 1011 10 16.0934 0 0
12:15 pm 12:15 Sunny 68 20.1 46 7.7 45 45 NNE 10 17 29.85 1011 10 16.0934 0 0
12:35 pm 12:35 Sunny 69 20.6 47 8.4 46 46 NE 7 11 29.85 1011 10 16.0934 0 0
12:55 pm 12:55 Sunny 69 20.7 46 7.7 43 43 ENE 3 6 29.85 1011 10 16.0934 0 0
1:15 pm 13:15 Sunny 71 21.4 48 8.7 44 44 ENE 7 11 29.85 1011 10 16.0934 0 0
1:35 pm 13:35 Sunny 71 21.8 47 8.1 42 42 NNE 6 9 29.85 1011 10 16.0934 0 0
1:55 pm 13:55 Sunny 72 22.1 48 8.7 42 42 NE 9 15 29.85 1011 10 16.0934 0 0
2:15 pm 14:15 Sunny 73 22.7 47 8.2 40 40 ENE 7 11 29.83 1010 10 16.0934 0 0
2:35 pm 14:35 Sunny 73 22.9 47 8.6 40 40 NE 9 15 29.83 1010 10 16.0934 0 0
2:55 pm 14:55 Sunny 74 23.2 46 7.7 37 37 NNE 6 9 29.83 1010 10 16.0934 0 0
3:15 pm 15:15 Sunny 74 23.3 47 8.5 39 39 ENE 9 15 29.8 1009 10 16.0934 0 0
3:35 pm 15:35 Sunny 75 24 48 8.8 38 38 NNE 8 13 29.8 1009 10 16.0934 0 0
3:55 pm 15:55 Sunny 76 24.3 49 9.3 39 39 NNE 9 15 29.8 1009 10 16.0934 0 0
4:15 pm 16:15 Sunny 76 24.3 49 9.6 39 39 ENE 6 9 29.8 1009 10 16.0934 0 0
4:35 pm 16:35 Partly Cloudy 76 24.3 50 9.8 40 40 ENE 10 17 29.8 1009 10 16.0934 0 0
4:55 pm 16:55 Sunny 76 24.5 51 10.5 41 41 ENE 7 11 29.8 1009 10 16.0934 0 0
5:15 pm 17:15 Sunny 75 23.8 50 10.1 42 42 ENE 7 11 29.77 1008 10 16.0934 0 0
5:35 pm 17:35 Sunny 76 24.5 50 10.2 41 41 E 6 9 29.77 1008 10 16.0934 0 0
5:55 pm 17:55 Sunny 76 24.3 50 10.2 41 41 E 12 19 29.77 1008 10 16.0934 0 0
6:15 pm 18:15 Partly Cloudy 75 24 50 10.1 42 42 ESE 9 15 29.77 1008 10 16.0934 0 0
6:35 pm 18:35 Partly Cloudy 75 23.7 51 10.6 44 44 ESE 9 15 29.77 1008 10 16.0934 0 0
6:55 pm 18:55 Mostly Cloudy 74 23.6 51 10.7 44 44 ESE 9 15 29.8 1009 10 16.0934 0 0
7:15 pm 19:15 Cloudy 73 23 46 7.8 38 38 E 8 13 29.8 1009 10 16.0934 0 0
7:35 pm 19:35 Partly Cloudy 72 22.3 53 11.9 52 52 ESE 9 15 29.8 1009 10 16.0934 0 0
7:55 pm 19:55 Sunny 71 21.8 54 12.3 55 55 ESE 9 15 29.83 1010 10 16.0934 0 0
8:15 pm 20:15 Sunny 69 20.4 54 12.3 60 60 E 7 11 29.83 1010 10 16.0934 0 0
8:35 pm 20:35 Mostly Cloudy 69 20.8 44 6.7 40 40 NE 14 22 29.83 1010 10 16.0934 0 0
8:55 pm 20:55 Partly Cloudy 68 20 40 4.3 36 36 NE 15 24 29.83 1010 10 16.0934 0 0
9:15 pm 21:15 Clear 67 19.5 38 3.4 35 35 NE 17 28 29.83 1010 10 16.0934 0 0
9:35 pm 21:35 Clear 66 18.7 38 3.3 36 36 NE 13 20 29.88 1012 10 16.0934 0 0
9:55 pm 21:55 Partly Cloudy 64 17.7 39 4 40 40 ENE 12 19 29.88 1012 10 16.0934 0 0
10:15 pm 22:15 Partly Cloudy 63 17.2 40 4.5 43 43 ENE 12 19 29.88 1012 10 16.0934 0 0
10:35 pm 22:35 Clear 62 16.5 40 4.5 45 45 ENE 12 19 29.88 1012 10 16.0934 0 0
10:55 pm 22:55 Clear 62 16.5 41 5 47 47 ENE 12 19 29.85 1011 10 16.0934 0 0
11:15 pm 23:15 Clear 61 16.3 42 5.4 49 49 ENE 12 19 29.85 1011 10 16.0934 0 0
11:35 pm 23:35 Partly Cloudy 62 16.7 42 5.5 48 48 E 13 20 29.88 1012 10 16.0934 0 0
11:55 pm 23:55 Mostly Cloudy 62 16.9 42 5.8 48 48 E 14 22 29.88 1012 10 16.0934 0 0

Powered by AerisWeather